PRIVATE WETTERSTATION BILLIGHEIM-ALLFELD                       ZURCK
Wetterdaten: Montag, 11.09.2017
Datum Zeit Temp. A. Temp. A. min Temp. A. max Feuchte A. Luftdruck Regen Wind Richtung Richtung Sonnenschein ET Solar Taupunkt Windchill Windben Empfang
11.09.2017 00:00 11,4 C 11,2 C 11,4 C 88 % 1004,7 hPa 0,0 l/m 1,6 km/h (1 Bft) SO 135 0 min 0,000 mm 0 W/m 9,5 C 11,4 C 4,8 km/h (1 Bft) 98 %
11.09.2017 00:10 11,1 C 11,1 C 11,4 C 87 % 1004,7 hPa 0,0 l/m 0,0 km/h (0 Bft) N 0 0 min 0,000 mm 0 W/m 9,0 C 11,1 C 0,0 km/h (0 Bft) 97 %
11.09.2017 00:20 10,8 C 10,7 C 11,1 C 89 % 1004,6 hPa 0,0 l/m 0,0 km/h (0 Bft) SO 135 0 min 0,000 mm 0 W/m 9,1 C 10,8 C 1,6 km/h (1 Bft) 97 %
11.09.2017 00:30 11,1 C 10,8 C 11,1 C 89 % 1004,6 hPa 0,0 l/m 1,6 km/h (1 Bft) SO 135 0 min 0,000 mm 0 W/m 9,4 C 11,1 C 4,8 km/h (1 Bft) 98 %
11.09.2017 00:40 11,0 C 11,0 C 11,1 C 89 % 1004,5 hPa 0,0 l/m 0,0 km/h (0 Bft) SO 135 0 min 0,000 mm 0 W/m 9,3 C 11,0 C 3,2 km/h (1 Bft) 97 %
11.09.2017 00:50 11,0 C 11,0 C 11,0 C 89 % 1004,4 hPa 0,0 l/m 3,2 km/h (1 Bft) SO 135 0 min 0,000 mm 0 W/m 9,3 C 11,0 C 8,0 km/h (2 Bft) 98 %
11.09.2017 01:00 10,9 C 10,9 C 11,1 C 89 % 1004,3 hPa 0,0 l/m 1,6 km/h (1 Bft) SO 135 0 min 0,000 mm 0 W/m 9,2 C 10,9 C 8,0 km/h (2 Bft) 97 %
11.09.2017 01:10 10,8 C 10,8 C 10,9 C 89 % 1004,4 hPa 0,0 l/m 1,6 km/h (1 Bft) S-SO 157 0 min 0,000 mm 0 W/m 9,1 C 10,8 C 8,0 km/h (2 Bft) 97 %
11.09.2017 01:20 10,6 C 10,6 C 10,8 C 89 % 1004,4 hPa 0,0 l/m 1,6 km/h (1 Bft) SO 135 0 min 0,000 mm 0 W/m 8,9 C 10,6 C 6,4 km/h (2 Bft) 97 %
11.09.2017 01:30 10,6 C 10,5 C 10,6 C 89 % 1004,2 hPa 0,0 l/m 4,8 km/h (1 Bft) SO 135 0 min 0,000 mm 0 W/m 8,9 C 10,6 C 9,7 km/h (2 Bft) 97 %
11.09.2017 01:40 10,5 C 10,5 C 10,6 C 89 % 1004,2 hPa 0,0 l/m 4,8 km/h (1 Bft) SO 135 0 min 0,000 mm 0 W/m 8,8 C 10,5 C 8,0 km/h (2 Bft) 98 %
11.09.2017 01:50 10,4 C 10,4 C 10,5 C 89 % 1004,1 hPa 0,0 l/m 4,8 km/h (1 Bft) SO 135 0 min 0,000 mm 0 W/m 8,7 C 10,4 C 9,7 km/h (2 Bft) 97 %
11.09.2017 02:00 10,3 C 10,3 C 10,4 C 89 % 1003,9 hPa 0,0 l/m 4,8 km/h (1 Bft) O-SO 112 0 min 0,000 mm 0 W/m 8,6 C 10,3 C 11,3 km/h (2 Bft) 98 %
11.09.2017 02:10 10,2 C 10,2 C 10,3 C 89 % 1003,8 hPa 0,0 l/m 4,8 km/h (1 Bft) SO 135 0 min 0,000 mm 0 W/m 8,5 C 10,2 C 9,7 km/h (2 Bft) 97 %
11.09.2017 02:20 10,1 C 10,1 C 10,2 C 89 % 1003,7 hPa 0,0 l/m 4,8 km/h (1 Bft) S-SO 157 0 min 0,000 mm 0 W/m 8,4 C 10,1 C 9,7 km/h (2 Bft) 98 %
11.09.2017 02:30 9,9 C 9,9 C 10,1 C 89 % 1003,5 hPa 0,0 l/m 3,2 km/h (1 Bft) SO 135 0 min 0,000 mm 0 W/m 8,2 C 9,9 C 8,0 km/h (2 Bft) 98 %
11.09.2017 02:40 9,9 C 9,9 C 9,9 C 89 % 1003,4 hPa 0,0 l/m 3,2 km/h (1 Bft) SO 135 0 min 0,000 mm 0 W/m 8,2 C 9,9 C 9,7 km/h (2 Bft) 98 %
11.09.2017 02:50 9,9 C 9,9 C 9,9 C 89 % 1003,1 hPa 0,0 l/m 4,8 km/h (1 Bft) SO 135 0 min 0,000 mm 0 W/m 8,2 C 9,9 C 9,7 km/h (2 Bft) 98 %
11.09.2017 03:00 9,9 C 9,9 C 10,0 C 89 % 1003,1 hPa 0,0 l/m 4,8 km/h (1 Bft) SO 135 0 min 0,000 mm 0 W/m 8,2 C 9,9 C 11,3 km/h (2 Bft) 97 %
11.09.2017 03:10 10,0 C 9,9 C 10,0 C 89 % 1003,0 hPa 0,0 l/m 4,8 km/h (1 Bft) SO 135 0 min 0,000 mm 0 W/m 8,3 C 10,0 C 14,5 km/h (3 Bft) 98 %
11.09.2017 03:20 9,9 C 9,9 C 10,0 C 89 % 1003,1 hPa 0,0 l/m 4,8 km/h (1 Bft) S-SO 157 0 min 0,000 mm 0 W/m 8,2 C 9,9 C 11,3 km/h (2 Bft) 97 %
11.09.2017 03:30 9,9 C 9,9 C 9,9 C 89 % 1002,8 hPa 0,0 l/m 4,8 km/h (1 Bft) SO 135 0 min 0,000 mm 0 W/m 8,2 C 9,9 C 9,7 km/h (2 Bft) 97 %
11.09.2017 03:40 9,8 C 9,8 C 9,9 C 89 % 1002,8 hPa 0,0 l/m 4,8 km/h (1 Bft) SO 135 0 min 0,000 mm 0 W/m 8,1 C 9,8 C 9,7 km/h (2 Bft) 98 %
11.09.2017 03:50 9,7 C 9,7 C 9,8 C 88 % 1002,8 hPa 0,0 l/m 3,2 km/h (1 Bft) SO 135 0 min 0,000 mm 0 W/m 7,8 C 9,7 C 9,7 km/h (2 Bft) 98 %
11.09.2017 04:00 9,6 C 9,6 C 9,7 C 89 % 1002,8 hPa 0,0 l/m 0,0 km/h (0 Bft) SO 135 0 min 0,000 mm 0 W/m 7,9 C 9,6 C 1,6 km/h (1 Bft) 98 %
11.09.2017 04:10 9,4 C 9,4 C 9,6 C 89 % 1002,9 hPa 0,0 l/m 0,0 km/h (0 Bft) N 0 0 min 0,000 mm 0 W/m 7,7 C 9,4 C 0,0 km/h (0 Bft) 96 %
11.09.2017 04:20 9,4 C 9,4 C 9,4 C 89 % 1002,8 hPa 0,0 l/m 3,2 km/h (1 Bft) SO 135 0 min 0,000 mm 0 W/m 7,7 C 9,4 C 8,0 km/h (2 Bft) 98 %
11.09.2017 04:30 9,6 C 9,4 C 9,6 C 89 % 1002,8 hPa 0,0 l/m 4,8 km/h (1 Bft) SO 135 0 min 0,000 mm 0 W/m 7,9 C 9,6 C 9,7 km/h (2 Bft) 96 %
11.09.2017 04:40 9,6 C 9,6 C 9,6 C 89 % 1002,8 hPa 0,0 l/m 3,2 km/h (1 Bft) S-SO 157 0 min 0,000 mm 0 W/m 7,9 C 9,6 C 8,0 km/h (2 Bft) 88 %
11.09.2017 04:50 9,6 C 9,6 C 9,6 C 89 % 1002,7 hPa 0,0 l/m 3,2 km/h (1 Bft) S-SO 157 0 min 0,000 mm 0 W/m 7,9 C 9,6 C 8,0 km/h (2 Bft) 98 %
11.09.2017 05:00 9,6 C 9,6 C 9,6 C 89 % 1002,6 hPa 0,0 l/m 4,8 km/h (1 Bft) S-SO 157 0 min 0,000 mm 0 W/m 7,9 C 9,6 C 9,7 km/h (2 Bft) 97 %
11.09.2017 05:10 9,8 C 9,6 C 9,8 C 88 % 1002,4 hPa 0,0 l/m 6,4 km/h (2 Bft) S-SO 157 0 min 0,000 mm 0 W/m 7,9 C 9,8 C 16,1 km/h (3 Bft) 98 %
11.09.2017 05:20 9,9 C 9,8 C 9,9 C 88 % 1002,3 hPa 0,0 l/m 4,8 km/h (1 Bft) S-SO 157 0 min 0,000 mm 0 W/m 8,0 C 9,9 C 16,1 km/h (3 Bft) 98 %
11.09.2017 05:30 9,8 C 9,8 C 9,9 C 88 % 1002,1 hPa 0,0 l/m 4,8 km/h (1 Bft) S-SO 157 0 min 0,000 mm 0 W/m 7,9 C 9,8 C 9,7 km/h (2 Bft) 98 %
11.09.2017 05:40 9,9 C 9,8 C 9,9 C 88 % 1001,9 hPa 0,0 l/m 4,8 km/h (1 Bft) S-SO 157 0 min 0,000 mm 0 W/m 8,0 C 9,9 C 12,9 km/h (3 Bft) 98 %
11.09.2017 05:50 10,1 C 9,9 C 10,1 C 88 % 1001,8 hPa 0,0 l/m 6,4 km/h (2 Bft) SO 135 0 min 0,000 mm 0 W/m 8,2 C 10,1 C 17,7 km/h (3 Bft) 97 %
11.09.2017 06:00 10,2 C 10,1 C 10,3 C 87 % 1001,8 hPa 0,0 l/m 6,4 km/h (2 Bft) S-SO 157 0 min 0,025 mm 0 W/m 8,1 C 10,2 C 16,1 km/h (3 Bft) 97 %
11.09.2017 06:10 10,2 C 10,2 C 10,3 C 87 % 1001,6 hPa 0,0 l/m 6,4 km/h (2 Bft) S-SO 157 0 min 0,000 mm 0 W/m 8,1 C 10,2 C 11,3 km/h (2 Bft) 97 %
11.09.2017 06:20 10,3 C 10,2 C 10,3 C 87 % 1001,4 hPa 0,0 l/m 6,4 km/h (2 Bft) SO 135 0 min 0,000 mm 0 W/m 8,2 C 10,3 C 14,5 km/h (3 Bft) 98 %
11.09.2017 06:30 10,4 C 10,3 C 10,4 C 87 % 1001,4 hPa 0,0 l/m 6,4 km/h (2 Bft) SO 135 0 min 0,000 mm 0 W/m 8,3 C 10,4 C 12,9 km/h (3 Bft) 97 %
11.09.2017 06:40 10,1 C 10,1 C 10,4 C 87 % 1001,3 hPa 0,0 l/m 0,0 km/h (0 Bft) S-SW 202 0 min 0,000 mm 0 W/m 8,0 C 10,1 C 4,8 km/h (1 Bft) 98 %
11.09.2017 06:50 10,0 C 10,0 C 10,1 C 88 % 1001,3 hPa 0,0 l/m 3,2 km/h (1 Bft) S-SO 157 0 min 0,000 mm 0 W/m 8,1 C 10,0 C 6,4 km/h (2 Bft) 98 %
11.09.2017 07:00 10,0 C 9,9 C 10,0 C 88 % 1001,1 hPa 0,0 l/m 4,8 km/h (1 Bft) S-SO 157 0 min 0,000 mm 9 W/m 8,1 C 10,0 C 8,0 km/h (2 Bft) 98 %
11.09.2017 07:10 10,2 C 10,0 C 10,2 C 88 % 1001,0 hPa 0,0 l/m 3,2 km/h (1 Bft) S-SO 157 0 min 0,000 mm 12 W/m 8,3 C 10,2 C 8,0 km/h (2 Bft) 98 %
11.09.2017 07:20 10,2 C 10,2 C 10,2 C 87 % 1000,9 hPa 0,0 l/m 4,8 km/h (1 Bft) S-SO 157 0 min 0,000 mm 23 W/m 8,1 C 10,2 C 11,3 km/h (2 Bft) 97 %
11.09.2017 07:30 10,4 C 10,2 C 10,4 C 87 % 1000,8 hPa 0,0 l/m 6,4 km/h (2 Bft) S-SO 157 0 min 0,000 mm 32 W/m 8,3 C 10,4 C 11,3 km/h (2 Bft) 98 %
11.09.2017 07:40 10,6 C 10,4 C 10,6 C 87 % 1000,9 hPa 0,0 l/m 6,4 km/h (2 Bft) S-SO 157 0 min 0,000 mm 40 W/m 8,5 C 10,6 C 16,1 km/h (3 Bft) 97 %
11.09.2017 07:50 10,7 C 10,6 C 10,7 C 87 % 1001,0 hPa 0,0 l/m 6,4 km/h (2 Bft) S 180 0 min 0,000 mm 30 W/m 8,6 C 10,7 C 14,5 km/h (3 Bft) 97 %
11.09.2017 08:00 10,7 C 10,6 C 10,7 C 87 % 1000,9 hPa 0,0 l/m 6,4 km/h (2 Bft) S-SO 157 0 min 0,025 mm 23 W/m 8,6 C 10,7 C 14,5 km/h (3 Bft) 98 %
11.09.2017 08:10 10,8 C 10,7 C 10,8 C 86 % 1001,0 hPa 0,0 l/m 6,4 km/h (2 Bft) S-SO 157 0 min 0,000 mm 26 W/m 8,6 C 10,8 C 16,1 km/h (3 Bft) 97 %
11.09.2017 08:20 10,9 C 10,8 C 10,9 C 86 % 1000,9 hPa 0,0 l/m 6,4 km/h (2 Bft) S-SO 157 0 min 0,000 mm 25 W/m 8,7 C 10,9 C 11,3 km/h (2 Bft) 98 %
11.09.2017 08:30 11,1 C 10,9 C 11,1 C 85 % 1000,8 hPa 0,0 l/m 4,8 km/h (1 Bft) S-SO 157 0 min 0,000 mm 62 W/m 8,7 C 11,1 C 11,3 km/h (2 Bft) 97 %
11.09.2017 08:40 11,3 C 11,1 C 11,3 C 85 % 1000,9 hPa 0,0 l/m 6,4 km/h (2 Bft) S-SO 157 0 min 0,000 mm 84 W/m 8,9 C 11,3 C 11,3 km/h (2 Bft) 98 %
11.09.2017 08:50 11,5 C 11,3 C 11,5 C 83 % 1001,0 hPa 0,0 l/m 8,0 km/h (2 Bft) S-SO 157 0 min 0,000 mm 62 W/m 8,7 C 10,4 C 17,7 km/h (3 Bft) 97 %
11.09.2017 09:00 11,6 C 11,5 C 11,6 C 83 % 1001,0 hPa 0,0 l/m 8,0 km/h (2 Bft) S-SO 157 0 min 0,025 mm 63 W/m 8,8 C 10,5 C 17,7 km/h (3 Bft) 98 %
11.09.2017 09:10 11,7 C 11,6 C 11,7 C 84 % 1001,0 hPa 0,0 l/m 8,0 km/h (2 Bft) S 180 0 min 0,000 mm 88 W/m 9,1 C 10,6 C 16,1 km/h (3 Bft) 98 %
11.09.2017 09:20 11,8 C 11,7 C 11,8 C 85 % 1001,0 hPa 0,0 l/m 6,4 km/h (2 Bft) S-SW 202 0 min 0,000 mm 76 W/m 9,4 C 11,8 C 17,7 km/h (3 Bft) 97 %
11.09.2017 09:30 11,8 C 11,8 C 11,8 C 85 % 1001,1 hPa 0,0 l/m 4,8 km/h (1 Bft) S 180 0 min 0,000 mm 93 W/m 9,4 C 11,8 C 11,3 km/h (2 Bft) 97 %
11.09.2017 09:40 12,1 C 11,8 C 12,1 C 85 % 1001,0 hPa 0,0 l/m 4,8 km/h (1 Bft) S 180 10 min 0,000 mm 260 W/m 9,7 C 12,1 C 9,7 km/h (2 Bft) 98 %
11.09.2017 09:50 12,8 C 12,1 C 12,8 C 84 % 1001,0 hPa 0,0 l/m 4,8 km/h (1 Bft) S-SW 202 10 min 0,000 mm 299 W/m 10,2 C 12,8 C 9,7 km/h (2 Bft) 98 %
11.09.2017 10:00 13,2 C 12,8 C 13,2 C 81 % 1001,0 hPa 0,0 l/m 8,0 km/h (2 Bft) S-SW 202 10 min 0,076 mm 243 W/m 10,0 C 12,2 C 20,9 km/h (4 Bft) 97 %
11.09.2017 10:10 13,1 C 13,1 C 13,2 C 80 % 1001,1 hPa 0,0 l/m 8,0 km/h (2 Bft) S 180 0 min 0,000 mm 86 W/m 9,7 C 12,1 C 19,3 km/h (3 Bft) 98 %
11.09.2017 10:20 13,1 C 13,1 C 13,1 C 81 % 1001,1 hPa 0,0 l/m 8,0 km/h (2 Bft) S-SW 202 10 min 0,000 mm 162 W/m 9,9 C 12,1 C 17,7 km/h (3 Bft) 97 %
11.09.2017 10:30 13,3 C 13,1 C 13,3 C 80 % 1001,1 hPa 0,0 l/m 6,4 km/h (2 Bft) S-SW 202 10 min 0,000 mm 165 W/m 9,9 C 13,3 C 11,3 km/h (2 Bft) 98 %
11.09.2017 10:40 13,4 C 13,3 C 13,4 C 81 % 1001,2 hPa 0,0 l/m 8,0 km/h (2 Bft) S-SW 202 10 min 0,000 mm 183 W/m 10,2 C 12,4 C 19,3 km/h (3 Bft) 97 %
11.09.2017 10:50 13,5 C 13,4 C 13,5 C 81 % 1001,2 hPa 0,0 l/m 11,3 km/h (2 Bft) S-SW 202 10 min 0,000 mm 169 W/m 10,3 C 10,9 C 20,9 km/h (4 Bft) 98 %
11.09.2017 11:00 13,3 C 13,3 C 13,5 C 83 % 1001,3 hPa 0,0 l/m 11,3 km/h (2 Bft) S-SW 202 10 min 0,102 mm 197 W/m 10,5 C 10,6 C 24,1 km/h (4 Bft) 98 %
11.09.2017 11:10 13,1 C 13,1 C 13,3 C 86 % 1001,2 hPa 0,0 l/m 8,0 km/h (2 Bft) S-SW 202 10 min 0,000 mm 214 W/m 10,8 C 12,1 C 17,7 km/h (3 Bft) 98 %
11.09.2017 11:20 13,1 C 13,1 C 13,1 C 87 % 1001,2 hPa 0,0 l/m 8,0 km/h (2 Bft) S-SW 202 10 min 0,000 mm 218 W/m 11,0 C 12,1 C 20,9 km/h (4 Bft) 98 %
11.09.2017 11:30 13,1 C 13,1 C 13,1 C 87 % 1001,0 hPa 0,0 l/m 6,4 km/h (2 Bft) S 180 10 min 0,000 mm 199 W/m 11,0 C 13,1 C 14,5 km/h (3 Bft) 98 %
11.09.2017 11:40 13,2 C 13,1 C 13,2 C 88 % 1000,9 hPa 0,0 l/m 6,4 km/h (2 Bft) S-SO 157 10 min 0,000 mm 197 W/m 11,3 C 13,2 C 11,3 km/h (2 Bft) 98 %
11.09.2017 11:50 13,5 C 13,2 C 13,5 C 87 % 1000,9 hPa 0,0 l/m 6,4 km/h (2 Bft) S-SO 157 10 min 0,000 mm 673 W/m 11,4 C 13,5 C 14,5 km/h (3 Bft) 97 %
11.09.2017 12:00 14,2 C 13,5 C 14,2 C 85 % 1000,9 hPa 0,0 l/m 8,0 km/h (2 Bft) S-SO 157 10 min 0,152 mm 856 W/m 11,7 C 13,3 C 17,7 km/h (3 Bft) 87 %
11.09.2017 12:10 14,7 C 14,2 C 14,7 C 82 % 1000,9 hPa 0,0 l/m 9,7 km/h (2 Bft) SO 135 10 min 0,000 mm 429 W/m 11,7 C 12,9 C 24,1 km/h (4 Bft) 98 %
11.09.2017 12:20 14,4 C 14,4 C 14,7 C 82 % 1000,9 hPa 0,0 l/m 8,0 km/h (2 Bft) S-SO 157 0 min 0,000 mm 109 W/m 11,4 C 13,5 C 20,9 km/h (4 Bft) 97 %
11.09.2017 12:30 14,3 C 14,3 C 14,4 C 82 % 1001,0 hPa 0,0 l/m 6,4 km/h (2 Bft) SO 135 0 min 0,000 mm 88 W/m 11,3 C 14,3 C 17,7 km/h (3 Bft) 98 %
11.09.2017 12:40 14,3 C 14,3 C 14,3 C 83 % 1001,0 hPa 0,0 l/m 4,8 km/h (1 Bft) S-SW 202 0 min 0,000 mm 83 W/m 11,5 C 14,3 C 17,7 km/h (3 Bft) 97 %
11.09.2017 12:50 14,6 C 14,3 C 14,6 C 83 % 1001,3 hPa 0,0 l/m 9,7 km/h (2 Bft) S-SW 202 10 min 0,000 mm 206 W/m 11,7 C 12,8 C 22,5 km/h (4 Bft) 98 %
11.09.2017 13:00 15,1 C 14,6 C 15,1 C 79 % 1001,3 hPa 0,0 l/m 11,3 km/h (2 Bft) S-SW 202 10 min 0,102 mm 265 W/m 11,5 C 12,7 C 24,1 km/h (4 Bft) 98 %
11.09.2017 13:10 15,1 C 15,1 C 15,1 C 82 % 1001,7 hPa 0,8 l/m 12,9 km/h (3 Bft) W 270 0 min 0,000 mm 83 W/m 12,0 C 12,0 C 32,2 km/h (5 Bft) 99 %
11.09.2017 13:20 14,2 C 14,2 C 15,1 C 86 % 1001,8 hPa 0,8 l/m 11,3 km/h (2 Bft) W 270 10 min 0,000 mm 271 W/m 11,9 C 11,6 C 27,4 km/h (4 Bft) 100 %
11.09.2017 13:30 14,1 C 14,1 C 14,2 C 88 % 1001,8 hPa 0,0 l/m 8,0 km/h (2 Bft) W-SW 247 10 min 0,000 mm 403 W/m 12,1 C 13,2 C 20,9 km/h (4 Bft) 100 %
11.09.2017 13:40 13,9 C 13,9 C 14,0 C 88 % 1002,0 hPa 0,0 l/m 4,8 km/h (1 Bft) SW 225 10 min 0,000 mm 225 W/m 11,9 C 13,9 C 16,1 km/h (3 Bft) 100 %
11.09.2017 13:50 14,2 C 13,9 C 14,2 C 88 % 1002,0 hPa 0,0 l/m 8,0 km/h (2 Bft) SW 225 10 min 0,000 mm 441 W/m 12,2 C 13,3 C 17,7 km/h (3 Bft) 100 %
11.09.2017 14:00 14,2 C 14,2 C 14,3 C 88 % 1002,2 hPa 0,0 l/m 6,4 km/h (2 Bft) SW 225 10 min 0,127 mm 241 W/m 12,2 C 14,2 C 20,9 km/h (4 Bft) 100 %
11.09.2017 14:10 13,8 C 13,8 C 14,2 C 87 % 1002,4 hPa 0,0 l/m 9,7 km/h (2 Bft) W-SW 247 0 min 0,000 mm 139 W/m 11,7 C 11,9 C 30,6 km/h (5 Bft) 98 %
11.09.2017 14:20 13,7 C 13,6 C 13,8 C 88 % 1002,5 hPa 0,2 l/m 6,4 km/h (2 Bft) W-SW 247 0 min 0,000 mm 139 W/m 11,7 C 13,7 C 16,1 km/h (3 Bft) 99 %
11.09.2017 14:30 13,6 C 13,6 C 13,6 C 89 % 1002,5 hPa 0,0 l/m 4,8 km/h (1 Bft) S-SW 202 10 min 0,000 mm 229 W/m 11,8 C 13,6 C 17,7 km/h (3 Bft) 100 %
11.09.2017 14:40 13,7 C 13,6 C 13,7 C 89 % 1002,4 hPa 0,0 l/m 6,4 km/h (2 Bft) S-SW 202 10 min 0,000 mm 251 W/m 11,9 C 13,7 C 17,7 km/h (3 Bft) 100 %
11.09.2017 14:50 13,7 C 13,6 C 13,7 C 89 % 1002,3 hPa 0,0 l/m 4,8 km/h (1 Bft) S-SW 202 10 min 0,000 mm 250 W/m 11,9 C 13,7 C 14,5 km/h (3 Bft) 100 %
11.09.2017 15:00 13,9 C 13,7 C 13,9 C 89 % 1002,3 hPa 0,0 l/m 6,4 km/h (2 Bft) S-SW 202 10 min 0,102 mm 396 W/m 12,1 C 13,9 C 17,7 km/h (3 Bft) 100 %
11.09.2017 15:10 14,4 C 13,9 C 14,4 C 89 % 1002,1 hPa 0,0 l/m 8,0 km/h (2 Bft) S-SW 202 10 min 0,000 mm 693 W/m 12,6 C 13,5 C 19,3 km/h (3 Bft) 100 %
11.09.2017 15:20 14,6 C 14,4 C 14,7 C 88 % 1002,2 hPa 0,0 l/m 8,0 km/h (2 Bft) S-SW 202 10 min 0,000 mm 671 W/m 12,6 C 13,7 C 19,3 km/h (3 Bft) 99 %
11.09.2017 15:30 14,3 C 14,3 C 14,6 C 88 % 1002,0 hPa 0,0 l/m 8,0 km/h (2 Bft) S-SO 157 10 min 0,000 mm 318 W/m 12,3 C 13,4 C 22,5 km/h (4 Bft) 99 %
11.09.2017 15:40 14,3 C 14,3 C 14,4 C 88 % 1002,0 hPa 0,0 l/m 8,0 km/h (2 Bft) S-SW 202 10 min 0,000 mm 214 W/m 12,3 C 13,4 C 22,5 km/h (4 Bft) 98 %
11.09.2017 15:50 14,6 C 14,3 C 14,6 C 89 % 1001,9 hPa 0,0 l/m 6,4 km/h (2 Bft) S-SO 157 10 min 0,000 mm 278 W/m 12,8 C 14,6 C 16,1 km/h (3 Bft) 100 %
11.09.2017 16:00 14,6 C 14,6 C 14,6 C 86 % 1002,0 hPa 0,0 l/m 9,7 km/h (2 Bft) S-SW 202 10 min 0,178 mm 373 W/m 12,3 C 12,8 C 25,7 km/h (4 Bft) 100 %
11.09.2017 16:10 14,6 C 14,6 C 14,6 C 84 % 1002,0 hPa 0,0 l/m 14,5 km/h (3 Bft) S-SW 202 0 min 0,000 mm 134 W/m 11,9 C 10,9 C 27,4 km/h (4 Bft) 100 %
11.09.2017 16:20 15,1 C 14,6 C 15,1 C 80 % 1002,0 hPa 0,0 l/m 14,5 km/h (3 Bft) S-SW 202 10 min 0,000 mm 338 W/m 11,7 C 11,5 C 41,8 km/h (6 Bft) 99 %
11.09.2017 16:30 15,2 C 15,1 C 15,2 C 80 % 1002,2 hPa 0,0 l/m 14,5 km/h (3 Bft) S-SW 202 10 min 0,000 mm 230 W/m 11,8 C 11,6 C 30,6 km/h (5 Bft) 100 %
11.09.2017 16:40 15,1 C 15,1 C 15,3 C 77 % 1002,2 hPa 0,0 l/m 11,3 km/h (2 Bft) W-SW 247 0 min 0,000 mm 125 W/m 11,1 C 12,7 C 32,2 km/h (5 Bft) 100 %
11.09.2017 16:50 15,4 C 15,1 C 15,4 C 77 % 1002,4 hPa 0,0 l/m 14,5 km/h (3 Bft) SW 225 10 min 0,000 mm 257 W/m 11,4 C 11,8 C 41,8 km/h (6 Bft) 100 %
11.09.2017 17:00 15,6 C 15,5 C 15,6 C 74 % 1002,5 hPa 0,0 l/m 14,5 km/h (3 Bft) SW 225 10 min 0,127 mm 172 W/m 11,0 C 12,1 C 32,2 km/h (5 Bft) 100 %
11.09.2017 17:10 15,4 C 15,4 C 15,6 C 73 % 1002,5 hPa 0,0 l/m 14,5 km/h (3 Bft) SW 225 0 min 0,000 mm 97 W/m 10,6 C 11,8 C 32,2 km/h (5 Bft) 100 %
11.09.2017 17:20 15,2 C 15,1 C 15,4 C 74 % 1002,4 hPa 0,0 l/m 14,5 km/h (3 Bft) S-SW 202 10 min 0,000 mm 190 W/m 10,6 C 11,6 C 35,4 km/h (5 Bft) 100 %
11.09.2017 17:30 15,2 C 15,2 C 15,3 C 71 % 1002,6 hPa 0,0 l/m 11,3 km/h (2 Bft) SW 225 0 min 0,000 mm 81 W/m 10,0 C 12,8 C 27,4 km/h (4 Bft) 100 %
11.09.2017 17:40 15,3 C 15,2 C 15,3 C 71 % 1002,6 hPa 0,0 l/m 8,0 km/h (2 Bft) W 270 0 min 0,000 mm 53 W/m 10,1 C 14,4 C 22,5 km/h (4 Bft) 100 %
11.09.2017 17:50 15,4 C 15,3 C 15,4 C 71 % 1002,5 hPa 0,0 l/m 8,0 km/h (2 Bft) W-SW 247 0 min 0,000 mm 47 W/m 10,2 C 14,5 C 29,0 km/h (5 Bft) 100 %
11.09.2017 18:00 15,4 C 15,4 C 15,4 C 66 % 1002,7 hPa 0,0 l/m 11,3 km/h (2 Bft) W 270 0 min 0,076 mm 46 W/m 9,1 C 13,0 C 29,0 km/h (5 Bft) 100 %
11.09.2017 18:10 15,4 C 15,4 C 15,4 C 67 % 1002,6 hPa 0,0 l/m 9,7 km/h (2 Bft) W-SW 247 0 min 0,000 mm 40 W/m 9,3 C 13,7 C 27,4 km/h (4 Bft) 100 %
11.09.2017 18:20 15,3 C 15,3 C 15,4 C 68 % 1002,7 hPa 0,0 l/m 4,8 km/h (1 Bft) W-SW 247 0 min 0,000 mm 39 W/m 9,4 C 15,3 C 20,9 km/h (4 Bft) 100 %
11.09.2017 18:30 15,1 C 15,1 C 15,3 C 69 % 1002,8 hPa 0,0 l/m 4,8 km/h (1 Bft) W-SW 247 0 min 0,000 mm 35 W/m 9,5 C 15,1 C 20,9 km/h (4 Bft) 100 %
11.09.2017 18:40 15,1 C 15,1 C 15,1 C 69 % 1003,0 hPa 0,0 l/m 11,3 km/h (2 Bft) W-SW 247 0 min 0,000 mm 32 W/m 9,5 C 12,7 C 35,4 km/h (5 Bft) 100 %
11.09.2017 18:50 14,8 C 14,8 C 15,1 C 69 % 1002,9 hPa 0,0 l/m 8,0 km/h (2 Bft) SW 225 0 min 0,000 mm 28 W/m 9,2 C 13,9 C 22,5 km/h (4 Bft) 100 %
11.09.2017 19:00 14,6 C 14,6 C 14,8 C 69 % 1003,0 hPa 0,0 l/m 8,0 km/h (2 Bft) SW 225 0 min 0,051 mm 25 W/m 9,0 C 13,7 C 27,4 km/h (4 Bft) 100 %
11.09.2017 19:20 14,1 C 14,1 C 14,8 C 71 % 1002,8 hPa 0,0 l/m 4,8 km/h (1 Bft) S-SW 213 0 min 0,000 mm 9 W/m 8,9 C 14,1 C 22,5 km/h (4 Bft) 97 %
11.09.2017 19:30 13,8 C 13,8 C 14,1 C 72 % 1002,9 hPa 0,0 l/m 5,1 km/h (1 Bft) SW 234 0 min 0,000 mm 7 W/m 8,8 C 13,8 C 20,9 km/h (4 Bft) 97 %
11.09.2017 19:40 13,5 C 13,5 C 13,8 C 73 % 1003,0 hPa 0,0 l/m 5,2 km/h (1 Bft) S-SW 213 0 min 0,000 mm 0 W/m 8,8 C 13,5 C 19,3 km/h (3 Bft) 97 %
11.09.2017 19:50 13,3 C 13,3 C 13,5 C 75 % 1003,1 hPa 0,0 l/m 8,0 km/h (2 Bft) S 175 0 min 0,000 mm 0 W/m 9,0 C 12,3 C 22,5 km/h (4 Bft) 88 %
11.09.2017 20:00 13,1 C 13,1 C 13,3 C 76 % 1003,3 hPa 0,0 l/m 7,4 km/h (2 Bft) S-SW 200 0 min 0,000 mm 0 W/m 9,0 C 12,5 C 19,3 km/h (3 Bft) 98 %
11.09.2017 20:10 13,0 C 13,0 C 13,1 C 76 % 1003,3 hPa 0,0 l/m 8,8 km/h (2 Bft) S-SO 161 0 min 0,025 mm 0 W/m 8,9 C 11,5 C 20,9 km/h (4 Bft) 97 %
11.09.2017 20:20 12,9 C 12,9 C 13,0 C 77 % 1003,4 hPa 0,0 l/m 6,1 km/h (2 Bft) S-SW 192 0 min 0,001 mm 0 W/m 9,0 C 12,9 C 19,3 km/h (3 Bft) 97 %
11.09.2017 20:30 12,5 C 12,5 C 12,9 C 79 % 1003,7 hPa 0,0 l/m 6,5 km/h (2 Bft) S 186 0 min 0,000 mm 0 W/m 9,0 C 12,5 C 17,7 km/h (3 Bft) 98 %
11.09.2017 20:40 12,3 C 12,3 C 12,5 C 79 % 1004,0 hPa 0,0 l/m 7,0 km/h (2 Bft) S-SO 167 0 min 0,000 mm 0 W/m 8,8 C 11,9 C 19,3 km/h (3 Bft) 97 %
11.09.2017 20:50 12,3 C 12,3 C 12,3 C 79 % 1004,1 hPa 0,0 l/m 9,5 km/h (2 Bft) SW 214 0 min 0,000 mm 0 W/m 8,8 C 10,4 C 19,3 km/h (3 Bft) 98 %
11.09.2017 21:00 12,3 C 12,3 C 12,3 C 79 % 1004,2 hPa 0,0 l/m 7,8 km/h (2 Bft) S-SW 193 0 min 0,000 mm 0 W/m 8,8 C 11,4 C 16,1 km/h (3 Bft) 97 %
11.09.2017 21:10 12,1 C 12,1 C 12,3 C 79 % 1004,3 hPa 0,0 l/m 4,8 km/h (1 Bft) S 180 0 min 0,000 mm 0 W/m 8,6 C 12,1 C 11,3 km/h (2 Bft) 100 %
11.09.2017 21:20 11,9 C 11,9 C 12,1 C 80 % 1004,4 hPa 0,0 l/m 4,8 km/h (1 Bft) S 180 0 min 0,000 mm 0 W/m 8,6 C 11,9 C 11,3 km/h (2 Bft) 100 %
11.09.2017 21:30 11,8 C 11,8 C 11,9 C 80 % 1004,5 hPa 0,0 l/m 4,8 km/h (1 Bft) S 180 0 min 0,000 mm 0 W/m 8,5 C 11,8 C 14,5 km/h (3 Bft) 100 %
11.09.2017 21:40 11,7 C 11,7 C 11,8 C 80 % 1004,6 hPa 0,0 l/m 1,6 km/h (1 Bft) S 180 0 min 0,000 mm 0 W/m 8,4 C 11,7 C 14,5 km/h (3 Bft) 100 %
11.09.2017 21:50 11,5 C 11,5 C 11,7 C 80 % 1004,5 hPa 0,0 l/m 1,6 km/h (1 Bft) S 180 0 min 0,000 mm 0 W/m 8,2 C 11,5 C 14,5 km/h (3 Bft) 100 %
11.09.2017 22:00 11,3 C 11,3 C 11,5 C 81 % 1004,5 hPa 0,0 l/m 3,2 km/h (1 Bft) S 180 0 min 0,025 mm 0 W/m 8,2 C 11,3 C 9,7 km/h (2 Bft) 100 %
11.09.2017 22:10 11,1 C 11,1 C 11,3 C 81 % 1004,7 hPa 0,0 l/m 4,8 km/h (1 Bft) S 180 0 min 0,000 mm 0 W/m 8,0 C 11,1 C 14,5 km/h (3 Bft) 100 %
11.09.2017 22:20 11,0 C 11,0 C 11,1 C 81 % 1004,7 hPa 0,0 l/m 1,6 km/h (1 Bft) S-SW 202 0 min 0,000 mm 0 W/m 7,9 C 11,0 C 11,3 km/h (2 Bft) 91 %
11.09.2017 22:30 11,0 C 11,0 C 11,0 C 82 % 1004,7 hPa 0,0 l/m 1,6 km/h (1 Bft) S-SO 157 0 min 0,000 mm 0 W/m 8,0 C 11,0 C 9,7 km/h (2 Bft) 100 %
11.09.2017 22:40 11,1 C 11,0 C 11,1 C 83 % 1004,8 hPa 0,0 l/m 3,2 km/h (1 Bft) S-SO 157 0 min 0,000 mm 0 W/m 8,3 C 11,1 C 9,7 km/h (2 Bft) 100 %
11.09.2017 22:50 11,1 C 11,1 C 11,1 C 83 % 1004,9 hPa 0,0 l/m 4,8 km/h (1 Bft) S-SO 157 0 min 0,000 mm 0 W/m 8,3 C 11,1 C 11,3 km/h (2 Bft) 100 %
11.09.2017 23:00 10,9 C 10,9 C 11,1 C 83 % 1005,0 hPa 0,0 l/m 4,8 km/h (1 Bft) S-SO 157 0 min 0,025 mm 0 W/m 8,1 C 10,9 C 9,7 km/h (2 Bft) 100 %
11.09.2017 23:10 10,9 C 10,9 C 11,0 C 83 % 1005,1 hPa 0,0 l/m 1,6 km/h (1 Bft) S-SO 157 0 min 0,000 mm 0 W/m 8,1 C 10,9 C 8,0 km/h (2 Bft) 100 %
11.09.2017 23:20 11,0 C 10,9 C 11,0 C 83 % 1005,0 hPa 0,0 l/m 0,0 km/h (0 Bft) SO 135 0 min 0,000 mm 0 W/m 8,2 C 11,0 C 1,6 km/h (1 Bft) 99 %
11.09.2017 23:30 11,1 C 11,0 C 11,1 C 82 % 1005,1 hPa 0,0 l/m 3,2 km/h (1 Bft) SO 135 0 min 0,000 mm 0 W/m 8,1 C 11,1 C 8,0 km/h (2 Bft) 100 %
11.09.2017 23:40 11,2 C 11,1 C 11,2 C 81 % 1005,1 hPa 0,0 l/m 4,8 km/h (1 Bft) SO 135 0 min 0,000 mm 0 W/m 8,1 C 11,2 C 9,7 km/h (2 Bft) 100 %
11.09.2017 23:50 11,2 C 11,1 C 11,2 C 81 % 1005,1 hPa 0,0 l/m 3,2 km/h (1 Bft) SO 135 0 min 0,000 mm 0 W/m 8,1 C 11,2 C 12,9 km/h (3 Bft) 99 %
_ Min-Zeit 04:10 04:10 04:20 18:00 07:30 - 00:10 - - - - - 04:10 04:10 00:10 12:00
Minimum _ 9,4 C 9,4 C 9,4 C 66 % 1000,8 hPa - 0,0 km/h (0 Bft) - - - - - 7,7 C 9,4 C 0,0 km/h (0 Bft) 87 %
_ Max-Zeit 17:00 17:00 17:00 00:20 23:10 13:10 16:10 - - 09:40 16:00 12:00 15:50 18:20 16:20 13:30
Maximum _ 15,6 C 15,5 C 15,6 C 89 % 1005,1 hPa 0,8 l/m 14,5 km/h
S-SW (3 Bft)
- - 10 min 0,178 mm 856 W/m 12,8 C 15,3 C 41,8 km/h
S-SW (6 Bft)
100 %
Durchschnitt _ 12,2 C 12,2 C 12,3 C 84 % 1002,6 hPa #1,8 l/m 6,2 km/h (2 Bft) S-SO - #6:10 h #1,244 mm 182 W/m 9,5 C 11,7 C 16,0 km/h (3 Bft) 98 %
PRIVATE WETTERSTATION BILLIGHEIM-ALLFELD - www.neckar-odenwald-wetter.de - Holger Sonntag